Anderson, SC

8:07 AM EDT on March 23, 2017 (GMT -0400)
Anderson Regional

Weather History for KAND - March, 2014

Change the Weather History Date:

Tuesday, March 4, 2014

  Actual Average Record
Temperature  
Mean Temperature 34 °F -  
Max Temperature 39 °F 63 °F 83 °F (1976)
Min Temperature 30 °F 41 °F 18 °F (1975)
Degree Days  
Heating Degree Days 30    
Moisture  
Dew Point 17 °F    
Average Humidity 51    
Maximum Humidity 82    
Minimum Humidity 29    
Precipitation  
Precipitation 0.00 in - - ()
Sea Level Pressure  
Sea Level Pressure 30.21 in    
Wind  
Wind Speed 12 mph (ENE)    
Max Wind Speed 18 mph    
Max Gust Speed 24 mph    
Visibility 10 miles    
Events      
Averages and records for this station are not official NWS values.
T = Trace of Precipitation, MM = Missing Value Source: NWS Daily Summary

Daily Weather History Graph

Daily Weather History Graph

Search for Another Location

Airport or City:

Trip Planner

Search our weather history database for the weather conditions in past years. The results will help you decide how hot, cold, wet, or windy it might be!

Date:

Astronomy

Mar. 04, 2014 Rise Set
Actual Time 6:56 AM EST 6:29 PM EST
Civil Twilight 6:30 AM EST 6:54 PM EST
Nautical Twilight 6:01 AM EST 7:23 PM EST
Astronomical Twilight 5:32 AM EST 7:53 PM EST
Moon 8:51 AM EST (3/4) 10:23 PM EST (3/4)
Length of Visible Light 12h 23m
Length of Day
11h 33m
Waxing Crescent, 14% of the Moon is Illuminated
Mar 4
Waxing Crescent
Mar 8
First Quarter
Mar 16
Full
Mar 23
Last Quarter
Mar 30
New

Hourly Weather History & Observations

Time (EST) Temp. Windchill Dew Point Humidity Pressure Visibility Wind Dir Wind Speed Gust Speed Precip Events Conditions
12:27 AM 35.1 °F 25.5 °F 30.0 °F 82% 30.17 in 10.0 mi ENE 15.0 mph - N/A   Overcast
12:36 AM 35.1 °F 24.5 °F 28.9 °F 78% 30.17 in 10.0 mi ENE 18.4 mph - N/A   Overcast
12:56 AM 34.0 °F 25.0 °F 28.0 °F 79% 30.18 in 10.0 mi ENE 12.7 mph - N/A   Overcast
1:17 AM 34.0 °F 23.4 °F 27.0 °F 75% 30.19 in 10.0 mi ENE 17.3 mph 23.0 mph N/A   Overcast
1:56 AM 34.0 °F 24.2 °F 27.0 °F 75% 30.19 in 10.0 mi ENE 15.0 mph - N/A   Overcast
2:56 AM 33.1 °F 23.9 °F 25.0 °F 72% 30.19 in 10.0 mi ENE 12.7 mph 21.9 mph N/A   Overcast
3:56 AM 33.1 °F 25.5 °F 24.1 °F 70% 30.20 in 10.0 mi ENE 9.2 mph - N/A   Overcast
4:07 AM 33.1 °F 24.9 °F 24.1 °F 70% 30.19 in 10.0 mi East 10.4 mph - N/A   Overcast
4:56 AM 32.0 °F 24.2 °F 19.9 °F 61% 30.22 in 10.0 mi ENE 9.2 mph - N/A   Overcast
5:56 AM 30.9 °F 20.7 °F 18.0 °F 59% 30.23 in 10.0 mi ENE 13.8 mph - N/A   Overcast
6:56 AM 30.0 °F 21.1 °F 18.0 °F 61% 30.25 in 10.0 mi NE 10.4 mph - N/A   Overcast
7:56 AM 30.0 °F 19.1 °F 16.0 °F 56% 30.27 in 10.0 mi ENE 15.0 mph - N/A   Overcast
8:56 AM 30.0 °F 19.5 °F 12.0 °F 47% 30.30 in 10.0 mi East 13.8 mph - N/A   Overcast
9:56 AM 30.9 °F 19.1 °F 1.9 °F 29% 30.29 in 10.0 mi ENE 18.4 mph 24.2 mph N/A   Overcast
10:56 AM 32.0 °F 21.6 °F 6.1 °F 34% 30.28 in 10.0 mi NE 15.0 mph 21.9 mph N/A   Overcast
11:56 AM 35.1 °F 25.5 °F 9.0 °F 34% 30.26 in 10.0 mi East 15.0 mph - N/A   Overcast
12:56 PM 37.0 °F 28.9 °F 9.0 °F 31% 30.25 in 10.0 mi ENE 12.7 mph - N/A   Overcast
1:56 PM 37.0 °F 30.4 °F 10.9 °F 34% 30.20 in 10.0 mi East 9.2 mph - N/A   Overcast
2:56 PM 39.0 °F 32.8 °F 12.0 °F 33% 30.19 in 10.0 mi ENE 9.2 mph - N/A   Overcast
3:56 PM 39.9 °F 35.8 °F 12.9 °F 33% 30.17 in 10.0 mi ENE 5.8 mph - N/A   Overcast
4:56 PM 39.0 °F 35.7 °F 14.0 °F 36% 30.19 in 10.0 mi ESE 4.6 mph - N/A   Overcast
5:56 PM 39.0 °F 34.8 °F 15.1 °F 38% 30.20 in 10.0 mi NE 5.8 mph - N/A   Overcast
6:56 PM 39.0 °F 34.8 °F 16.0 °F 39% 30.19 in 10.0 mi ENE 5.8 mph - N/A   Overcast
7:56 PM 37.9 °F 33.5 °F 16.0 °F 41% 30.19 in 10.0 mi SE 5.8 mph - N/A   Overcast
8:56 PM 37.9 °F 34.4 °F 16.0 °F 41% 30.20 in 10.0 mi ESE 4.6 mph - N/A   Overcast
9:56 PM 37.9 °F 34.4 °F 16.0 °F 41% 30.20 in 10.0 mi East 4.6 mph - N/A   Overcast
10:56 PM 37.0 °F 31.6 °F 16.0 °F 42% 30.19 in 10.0 mi ENE 6.9 mph - N/A   Mostly Cloudy
11:56 PM 37.0 °F 32.4 °F 16.0 °F 42% 30.17 in 10.0 mi ENE 5.8 mph - N/A   Overcast